Retour au catalogue

STARLINK-11743

ActifCommunicationsVLEO
NORAD 64379·PAYLOAD·🇺🇸 United States

Lancé Jun 13, 2025 depuis Cape Canaveral Space Force Station

Loading…

Prochains Passages (prochaines 24 heures)

TLE

FraisSource: CelesTrak SupGP

Époque: Sep 14, 2026, 23:06 UTC

1 64379C 25127K   26257.96298611  .00003582  00000+0  27799-4 0  2572
2 64379  43.0010  24.0145 0001757 270.6251 180.4691 15.70853630    16

Suivez STARLINK-11743 en temps réel avec AllMySat

Download on the App Store